This is the latest recevied weather packets stored in our database for station/object Seibranz. If no packets are shown the sender has not sent any weather packets the latest 10 day(s).
| Time | Temp. | Humidity | Pressure | Rain* | Wind** | Luminosity | Snow |
|---|---|---|---|---|---|---|---|
| 1787898729 | 21.67° C | 76% | 1007.9 hPa | 0 mm | - | - | - |
| 1787896930 | 18.89° C | 84% | 1007.9 hPa | 0 mm | - | - | - |
| 1787895130 | 18.33° C | 87% | 1008.3 hPa | 0 mm | - | - | - |
| 1787893329 | 18.33° C | 83% | 1008.2 hPa | 0 mm | - | - | - |
| 1787891530 | 17.78° C | 83% | 1008.1 hPa | 0 mm | - | - | - |
| 1787889733 | 18.89° C | 77% | 1007.9 hPa | 0 mm | - | - | - |
| 1787887929 | 20° C | 72% | 1007.8 hPa | 0 mm | - | - | - |
| 1787886129 | 22.22° C | 64% | 1008.4 hPa | 0 mm | - | - | - |
| 1787884330 | 22.22° C | 65% | 1008.3 hPa | 0 mm | - | - | - |
| 1787882530 | 22.22° C | 66% | 1008.3 hPa | 0 mm | - | - | - |
| 1787880729 | 22.78° C | 64% | 1008.5 hPa | 0 mm | - | - | - |
| 1787878929 | 21.11° C | 70% | 1008.5 hPa | 0 mm | - | - | - |
| 1787877131 | 22.78° C | 65% | 1008.7 hPa | 0 mm | - | - | - |
| 1787875331 | 20.56° C | 77% | 1008.8 hPa | 0 mm | - | - | - |
| 1787873530 | 17.22° C | 92% | 1009 hPa | 0 mm | - | - | - |
| 1787871732 | 17.22° C | 91% | 1009.2 hPa | 0 mm | - | - | - |
| 1787869931 | 17.78° C | 91% | 1009 hPa | 0 mm | - | - | - |
| 1787866332 | 19.44° C | 88% | 1009.5 hPa | 0 mm | - | - | - |
| 1787864531 | 21.11° C | 83% | 1009.3 hPa | 0 mm | - | - | - |
| 1787862731 | 21.11° C | 82% | 1009.4 hPa | 0 mm | - | - | - |
| 1787860931 | 21.67° C | 81% | 1009.5 hPa | 0 mm | - | - | - |
| 1787859131 | 22.78° C | 78% | 1009.9 hPa | 0 mm | - | - | - |
| 1787857331 | 22.22° C | 78% | 1009.8 hPa | 0 mm | - | - | - |
| 1787855530 | 23.33° C | 75% | 1009.7 hPa | 0 mm | - | - | - |
| 1787853731 | 24.44° C | 71% | 1009.8 hPa | 0 mm | - | - | - |
* Rain since midnight (hover to see other rain measurements)
** Current wind speed in m/s (hover to see current wind gust speed)